アトラス彗星

C/2024 X2 ( ATLAS )

English version
Home page
Updated on May 2, 2025

---------------------------------------------------------------------

・ プロフィール

発見日 2024年12月12日
発見光度 18.8等
発見者 Asteroid Terrestrial-Impact Last Alert System (ATLAS) search program

・ 写真集

・ 軌道要素

Epoch 2025 May 5.0 TT = JDT 2460800.5
T 2025 July 7.86667 TT                                  Payne
q   3.6763084            (2000.0)            P               Q
z  +0.0197842      Peri.  315.77900     -0.57889653     -0.17603018
 +/-0.0000125      Node   122.52295     +0.70310267     +0.38673093
e   0.9272671      Incl.  109.22109     -0.41294727     +0.90523619
From 269 observations 2024 Dec. 12-2025 Apr. 29, mean residual 0".4.

・ 光度変化

        m1 = 8.8 + 5 logΔ + 10.0 log r

---------------------------------------------------------------------

軌道要素はM.P.E.C. 2025-J08に掲載されたものです。
光度グラフはComet for Windowsで作成したものです。

---------------------------------------------------------------------

Copyright(C) Seiichi Yoshida (comet@aerith.net). All rights reserved.